DW6356 Weather Reports


time (UTC)temp
C
wind
direction
speed
KPH
gust
KPH
rain 1hr
cm
rain 24hr
cm
rain mn
cm
humidity
%
barometer
mb
20260507190038 10 283 0.0 4.8 0.23 0.71 0.71 3 1015.7
20260507184536 10 310 0.0 9.7 0.23 0.66 0.66 7 1015.6
20260507183037 10 264 1.6 6.4 0.28 0.56 0.56 13 1015.2
20260507181525 10 307 0.0 6.4 0.30 0.48 0.48 18 1015.1
20260507180021 11 274 0.0 1.6 0.41 0.46 0.46 25 1014.6
20260507174517 11 120 0.0 8.0 0.43 0.43 0.43 39 1014.3
20260507173013 11 270 0.0 3.2 0.25 0.25 0.25 57 1014.1
20260507171510 11 271 0.0 8.0 0.15 0.15 0.15 85 1013.7
20260507170006 12 333 0.0 3.2 0.05 0.05 0.05 91 1013.4
20260507164508 13 99 0.0 8.0 0.00 0.00 0.00 82 1013.1
20260507163004 16 307 4.8 14.5 0.00 0.00 0.00 70 1012.6
20260507161504 17 349 0.0 6.4 0.00 0.00 0.00 65 1012.0
20260507160004 18 151 0.0 3.2 0.00 0.00 0.00 60 1011.7
20260507154503 19 136 0.0 1.6 0.00 0.00 0.00 57 1011.6
20260507153001 20 115 0.0 4.8 0.00 0.00 0.00 52 1011.4
20260507151501 21 151 1.6 9.7 0.00 0.00 0.00 51 1011.4
20260507150100 21 158 1.6 9.7 0.00 0.00 0.00 52 1011.5
20260507144603 20 150 1.6 8.0 0.00 0.00 0.00 52 1011.7
20260507143110 20 47 3.2 9.7 0.00 0.00 0.00 53 1011.7
20260507141613 20 143 1.6 8.0 0.00 0.00 0.00 55 1011.8
20260507140054 20 143 0.0 8.0 0.00 0.00 0.00 57 1011.8
20260507134554 20 133 1.6 8.0 0.00 0.00 0.00 56 1011.9
20260507133051 20 127 1.6 8.0 0.00 0.00 0.00 59 1012.0
20260507131602 20 142 0.0 9.7 0.00 0.00 0.00 60 1012.1
20260507130048 20 79 1.6 6.4 0.00 0.00 0.00 63 1012.4
20260507124548 20 151 3.2 11.3 0.00 0.00 0.00 64 1012.3
20260507123103 20 105 0.0 8.0 0.00 0.00 0.00 63 1012.5
20260507121546 20 111 3.2 9.7 0.00 0.00 0.00 61 1012.6
20260507120044 20 56 0.0 6.4 0.00 0.00 0.00 64 1012.7
20260507114541 19 72 1.6 11.3 0.00 0.00 0.00 65 1012.7
20260507113038 18 59 0.0 3.2 0.00 0.00 0.00 67 1012.8
20260507111539 18 44 0.0 6.4 0.00 0.00 0.00 66 1012.9
20260507110038 18 37 0.0 3.2 0.00 0.00 0.00 68 1012.9
20260507104539 18 288 0.0 4.8 0.00 0.00 0.00 69 1013.0
20260507103036 18 60 0.0 3.2 0.00 0.00 0.00 68 1013.1
20260507101534 18 53 1.6 4.8 0.00 0.00 0.00 70 1013.2
20260507100042 18 49 0.0 6.4 0.00 0.00 0.00 70 1013.3
20260507094533 18 39 0.0 3.2 0.00 0.00 0.00 70 1013.3
20260507093030 17 158 1.6 8.0 0.00 0.00 0.00 72 1013.1
20260507091534 18 53 0.0 3.2 0.00 0.00 0.00 73 1012.9
20260507090027 18 222 0.0 6.4 0.00 0.00 0.00 73 1013.0
20260507084525 17 41 0.0 8.0 0.00 0.00 0.00 74 1012.9
20260507083022 17 40 0.0 3.2 0.00 0.00 0.00 74 1012.8
20260507081522 17 110 0.0 3.2 0.00 0.00 0.00 73 1012.8
20260507080018 17 52 0.0 3.2 0.00 0.00 0.00 74 1012.6
20260507074516 16 34 0.0 1.6 0.00 0.00 0.00 77 1012.5
20260507073014 16 44 0.0 1.6 0.00 0.00 0.00 78 1012.3
20260507071520 16 44 0.0 1.6 0.00 0.00 0.00 79 1012.2
20260507070011 15 40 0.0 1.6 0.00 0.00 0.00 79 1012.0
20260507064506 15 360 0.0 0.0 0.00 0.00 0.00 83 1011.9
20260507063004 14 359 0.0 0.0 0.00 0.00 0.00 85 1011.9
20260507061503 14 360 0.0 0.0 0.00 0.00 0.00 86 1011.8
20260507060001 13 360 0.0 0.0 0.00 0.00 0.00 87 1011.7
20260507054608 13 340 0.0 0.0 0.00 0.00 0.00 89 1011.5
20260507053109 12 340 0.0 0.0 0.00 0.00 0.00 90 1011.3
20260507051657 12 339 0.0 0.0 0.00 0.00 0.00 91 1011.2
20260507050054 12 338 0.0 0.0 0.00 0.00 0.00 90 1011.0
20260507044557 12 338 0.0 0.0 0.00 0.00 0.00 91 1010.8
20260507043052 12 338 0.0 0.0 0.00 0.00 0.00 91 1010.6
20260507041551 12 339 0.0 0.0 0.00 0.00 0.00 91 1010.4
20260507040046 12 338 0.0 0.0 0.00 0.00 0.00 90 1010.1
20260507034544 12 338 0.0 0.0 0.00 0.00 0.00 89 1009.9
20260507033042 12 338 0.0 0.0 0.00 0.00 0.00 88 1009.8
20260507031538 12 339 0.0 1.6 0.00 0.00 0.00 86 1009.9
20260507030038 13 339 0.0 0.0 0.00 0.00 0.00 85 1009.9
20260507024534 13 338 0.0 1.6 0.00 0.00 0.00 83 1010.0
20260507023030 14 346 0.0 1.6 0.00 0.00 0.00 81 1009.7
20260507021529 14 98 0.0 1.6 0.00 0.00 0.00 81 1009.5
20260507020034 14 152 0.0 1.6 0.00 0.00 0.00 82 1009.4
20260507014527 14 58 0.0 3.2 0.00 0.00 0.00 81 1009.4
20260507013025 14 103 0.0 0.0 0.00 0.00 0.00 81 1009.4
20260507011524 15 85 0.0 1.6 0.00 0.00 0.00 79 1009.6
20260507010025 15 331 0.0 3.2 0.00 0.00 0.00 79 1009.3
20260507004520 15 313 0.0 1.6 0.00 0.00 0.00 79 1009.2
20260507003021 15 91 0.0 1.6 0.00 0.00 0.00 77 1009.2
20260507001517 15 56 0.0 1.6 0.00 0.00 0.00 76 1008.9
20260507000015 15 35 0.0 1.6 0.00 0.00 0.00 77 1008.9
20260506234513 15 326 0.0 9.7 0.00 0.00 0.00 77 1008.6
20260506233013 15 8 0.0 6.4 0.00 0.00 0.00 78 1008.5
20260506231511 15 110 0.0 4.8 0.00 0.00 0.00 78 1008.5
20260506230019 15 148 0.0 6.4 0.00 0.00 0.00 78 1008.4
20260506224508 15 160 1.6 8.0 0.00 0.00 0.00 77 1008.2
20260506223007 15 328 1.6 6.4 0.00 0.00 0.00 77 1008.1
20260506221504 15 323 1.6 12.9 0.00 0.00 0.00 76 1008.4
20260506220133 15 65 0.0 6.4 0.00 0.00 0.00 76 1008.5
20260506214502 15 176 1.6 9.7 0.00 0.00 0.00 76 1008.2
20260506213111 15 18 1.6 9.7 0.00 0.00 0.00 76 1008.0
20260506211559 16 283 0.0 6.4 0.00 0.00 0.00 75 1008.0
20260506210105 16 64 1.6 12.9 0.00 0.00 0.00 74 1007.8
20260506204606 16 207 3.2 12.9 0.00 0.00 0.00 74 1007.4
20260506203056 16 314 0.0 8.0 0.00 0.00 0.00 74 1007.6
20260506201556 16 45 1.6 4.8 0.00 0.00 0.00 74 1007.9
20260506200055 16 226 0.0 11.3 0.00 0.00 0.00 74 1007.9
20260506194555 16 289 1.6 6.4 0.00 0.00 0.00 73 1007.9
20260506193055 16 127 1.6 6.4 0.00 0.00 0.00 72 1007.8
20260506191602 16 326 0.0 6.4 0.00 0.00 0.00 72 1007.8